Weather in Bender

Moldova     46˚49′23″N   29˚28′54″E
temp.,
°C
wind,
m/s
gust,
m/s
humid.,
%
clouds,
%
prec.,
mm/h
press.,
hPa
HPBL,
m
3 december, thu
thu323:00+1˚ene249698 0.0 1025132
02:00+2˚ne469699 0.0 1024254
05:00+1˚ene3594100 0.0 1024249
08:00+1˚ne249696 0.0 1024192
11:00+3˚ene249392 0.0 1024340
14:00+4˚e248990 0.0 1022299
17:00+4˚ne239397 0.0 102267
20:00+4˚ene119697 0.0 102124
4 december, fri
fri423:00+3˚ssw119550 0.0 102122
02:00+2˚sse239440 0.0 102126
05:00+2˚se229436 0.0 102023
08:00+3˚ese239436 0.0 102141
11:00+6˚ese389883 0.1 1021244
14:00+10˚ese6108490 0.2 1020561
17:00+8˚ese7129296 0.0 1020431
20:00+7˚ese6129294 0.0 1021397
5 december, sat
sat523:00+7˚ese51093100 0.0 1021450
02:00+7˚ese6993100 0.0 1022450
05:00+7˚ese6991100 0.0 1022468
08:00+6˚ese6992100 0.0 1023519
11:00+7˚ese7986100 0.0 1024549
14:00+7˚ese7984100 0.0 1024548
17:00+6˚ese6984100 0.0 1025555
20:00+5˚e6982100 0.0 1026555
6 december, sun
sun623:00+4˚ese6884100 0.0 1026620
02:00+4˚e6884100 0.0 1027633
05:00+3˚e6881100 0.0 1027708
08:00+1˚e6971100 0.0 1027493
11:00+1˚e6965100 0.0 1028597
14:00+3˚e686096 0.0 1027846
17:00+1˚e496139 0.0 1027374
20:00e5115833 0.0 1027427
7 december, mon
mon723:00−1˚e612529 0.0 1027385
02:00−1˚e6115717 0.0 1027438
05:00−2˚e7116383 0.0 1027505
08:00−2˚e7116892 0.0 1027506
11:00−1˚e61066100 0.0 1027586
14:00e6971100 0.0 1026637
17:00ene61172100 0.0 1026606
20:00ene61181100 0.0 1025541